Time,TemperatureF,DewpointF,PressureIn,WindDirection,WindDirectionDegrees,WindSpeedMPH,WindSpeedGustMPH,Humidity,HourlyPrecipIn,Conditions,Clouds,dailyrainin,SolarRadiationWatts/m^2,SoftwareType,DateUTC
2013-08-20 00:01:00,68.0,46.0,-100.00,SW,227,17.0,26.0,45,0.00,,,0.00,0.000000,,2013-08-20 07:01:00,
2013-08-20 00:11:00,68.0,46.0,-100.00,SW,227,17.0,26.0,45,0.00,,,0.00,0.000000,,2013-08-20 07:11:00,
2013-08-20 00:21:00,68.0,46.0,-100.00,SW,227,17.0,26.0,45,0.00,,,0.00,0.000000,,2013-08-20 07:21:00,
2013-08-20 00:52:00,70.0,52.0,-100.00,SW,229,15.0,25.0,52,0.00,,,0.00,0.000000,,2013-08-20 07:52:00,
2013-08-20 01:02:00,70.0,52.0,-100.00,SW,229,15.0,25.0,52,0.00,,,0.00,0.000000,,2013-08-20 08:02:00,
2013-08-20 01:11:00,70.0,52.0,-100.00,SW,229,15.0,25.0,52,0.00,,,0.00,0.000000,,2013-08-20 08:11:00,
2013-08-20 01:21:00,70.0,52.0,-100.00,SW,229,15.0,25.0,52,0.00,,,0.00,0.000000,,2013-08-20 08:21:00,
2013-08-20 01:52:00,67.0,52.0,-100.00,WSW,241,16.0,23.0,58,0.00,,,0.00,0.000000,,2013-08-20 08:52:00,
2013-08-20 02:01:00,67.0,52.0,-100.00,WSW,241,16.0,23.0,58,0.00,,,0.00,0.000000,,2013-08-20 09:01:00,
2013-08-20 02:11:00,67.0,52.0,-100.00,WSW,241,16.0,23.0,58,0.00,,,0.00,0.000000,,2013-08-20 09:11:00,
2013-08-20 02:21:00,67.0,52.0,-100.00,WSW,241,16.0,23.0,58,0.00,,,0.00,0.000000,,2013-08-20 09:21:00,
2013-08-20 02:53:00,66.0,46.0,-100.00,WSW,246,15.0,22.0,49,0.00,,,0.00,0.000000,,2013-08-20 09:53:00,
2013-08-20 03:03:00,66.0,46.0,-100.00,WSW,246,15.0,22.0,49,0.00,,,0.00,0.000000,,2013-08-20 10:03:00,
2013-08-20 03:12:00,66.0,46.0,-100.00,WSW,246,15.0,22.0,49,0.00,,,0.00,0.000000,,2013-08-20 10:12:00,
2013-08-20 03:22:00,66.0,46.0,-100.00,WSW,246,15.0,22.0,49,0.00,,,0.00,0.000000,,2013-08-20 10:22:00,
2013-08-20 03:52:00,66.0,45.0,-100.00,WSW,246,17.0,23.0,46,0.00,,,0.00,0.000000,,2013-08-20 10:52:00,
2013-08-20 04:02:00,66.0,45.0,-100.00,WSW,246,17.0,23.0,46,0.00,,,0.00,0.000000,,2013-08-20 11:02:00,
2013-08-20 04:11:00,66.0,45.0,-100.00,WSW,246,17.0,23.0,46,0.00,,,0.00,0.000000,,2013-08-20 11:11:00,
2013-08-20 04:21:00,66.0,45.0,-100.00,WSW,246,17.0,23.0,46,0.00,,,0.00,0.000000,,2013-08-20 11:21:00,
2013-08-20 04:52:00,66.0,46.0,-100.00,WSW,250,19.0,25.0,48,0.00,,,0.00,0.000000,,2013-08-20 11:52:00,
2013-08-20 05:01:00,66.0,46.0,-100.00,WSW,250,19.0,25.0,48,0.00,,,0.00,0.000000,,2013-08-20 12:01:00,
2013-08-20 05:12:00,66.0,46.0,-100.00,WSW,250,19.0,25.0,48,0.00,,,0.00,0.000000,,2013-08-20 12:12:00,
2013-08-20 05:52:00,63.0,47.0,-100.00,WSW,238,13.0,23.0,55,-99.99,,,0.00,0.000000,,2013-08-20 12:52:00,
2013-08-20 06:01:00,63.0,47.0,-100.00,WSW,238,13.0,23.0,55,-99.99,,,0.00,0.000000,,2013-08-20 13:01:00,
2013-08-20 06:11:00,63.0,47.0,-100.00,WSW,238,13.0,23.0,55,-99.99,,,0.00,0.000000,,2013-08-20 13:11:00,
2013-08-20 06:21:00,63.0,47.0,-100.00,WSW,238,13.0,23.0,55,-99.99,,,0.00,0.000000,,2013-08-20 13:21:00,
2013-08-20 06:52:00,63.0,49.0,-100.00,SW,225,13.0,20.0,60,0.00,,,0.00,0.000000,,2013-08-20 13:52:00,
2013-08-20 07:02:00,63.0,49.0,-100.00,SW,225,13.0,20.0,60,0.00,,,0.00,0.000000,,2013-08-20 14:02:00,
2013-08-20 07:11:00,63.0,49.0,-100.00,SW,225,13.0,20.0,60,0.00,,,0.00,0.000000,,2013-08-20 14:11:00,
2013-08-20 07:21:00,63.0,49.0,-100.00,SW,225,13.0,20.0,60,0.00,,,0.00,0.000000,,2013-08-20 14:21:00,
2013-08-20 07:52:00,64.0,51.0,-100.00,SW,230,16.0,22.0,62,0.00,,,0.00,35.000000,,2013-08-20 14:52:00,
2013-08-20 08:02:00,64.0,51.0,-100.00,SW,230,16.0,22.0,62,0.00,,,0.00,35.000000,,2013-08-20 15:02:00,
2013-08-20 08:11:00,64.0,51.0,-100.00,SW,230,16.0,22.0,62,0.00,,,0.00,35.000000,,2013-08-20 15:11:00,
2013-08-20 08:22:00,64.0,51.0,-100.00,SW,230,16.0,22.0,62,0.00,,,0.00,35.000000,,2013-08-20 15:22:00,
2013-08-20 08:28:00,-999.0,-99.9,-100.00,SW,218,16.0,20.0,47,0.00,,,0.00,194.000000,,2013-08-20 15:28:00,
2013-08-20 11:21:00,75.0,50.0,-100.00,WSW,238,11.0,16.0,42,0.00,,,0.00,573.000000,,2013-08-20 18:21:00,
2013-08-20 11:52:00,77.0,50.0,-100.00,WSW,241,12.0,17.0,39,0.00,,,0.00,727.000000,,2013-08-20 18:52:00,
2013-08-20 12:01:00,77.0,50.0,-100.00,WSW,241,12.0,17.0,39,0.00,,,0.00,727.000000,,2013-08-20 19:01:00,
2013-08-20 12:11:00,77.0,50.0,-100.00,WSW,241,12.0,17.0,39,0.00,,,0.00,727.000000,,2013-08-20 19:11:00,
2013-08-20 12:21:00,77.0,50.0,-100.00,WSW,241,12.0,17.0,39,0.00,,,0.00,727.000000,,2013-08-20 19:21:00,
2013-08-20 12:52:00,81.0,54.0,-100.00,WSW,255,10.0,15.0,39,0.00,,,-99.99,826.000000,,2013-08-20 19:52:00,
2013-08-20 13:03:00,81.0,54.0,-100.00,WSW,255,10.0,15.0,39,0.00,,,-99.99,826.000000,,2013-08-20 20:03:00,
2013-08-20 13:11:00,81.0,54.0,-100.00,WSW,255,10.0,15.0,39,0.00,,,-99.99,826.000000,,2013-08-20 20:11:00,
2013-08-20 13:21:00,81.0,54.0,-100.00,WSW,255,10.0,15.0,39,0.00,,,-99.99,826.000000,,2013-08-20 20:21:00,
2013-08-20 13:52:00,81.0,51.0,-100.00,WSW,254,13.0,19.0,35,0.00,,,0.00,868.000000,,2013-08-20 20:52:00,
2013-08-20 14:02:00,81.0,51.0,-100.00,WSW,254,13.0,19.0,35,0.00,,,0.00,868.000000,,2013-08-20 21:02:00,
2013-08-20 14:11:00,81.0,51.0,-100.00,WSW,254,13.0,19.0,35,0.00,,,0.00,868.000000,,2013-08-20 21:11:00,
2013-08-20 14:22:00,81.0,51.0,-100.00,WSW,254,13.0,19.0,35,0.00,,,0.00,868.000000,,2013-08-20 21:22:00,
2013-08-20 15:14:00,85.0,51.0,-100.00,WSW,250,11.0,17.0,31,0.00,,,0.00,853.000000,,2013-08-20 22:14:00,
2013-08-20 15:24:00,85.0,51.0,-100.00,WSW,250,11.0,17.0,31,0.00,,,0.00,853.000000,,2013-08-20 22:24:00,
2013-08-20 15:53:00,85.0,50.0,-100.00,WSW,246,15.0,19.0,30,0.00,,,0.00,783.000000,,2013-08-20 22:53:00,
2013-08-20 16:03:00,85.0,50.0,-100.00,WSW,246,15.0,19.0,30,0.00,,,0.00,783.000000,,2013-08-20 23:03:00,
2013-08-20 16:12:00,85.0,50.0,-100.00,WSW,246,15.0,19.0,30,0.00,,,0.00,783.000000,,2013-08-20 23:12:00,
2013-08-20 16:22:00,85.0,50.0,-100.00,WSW,246,15.0,19.0,30,0.00,,,0.00,783.000000,,2013-08-20 23:22:00,
2013-08-20 16:53:00,83.0,49.0,-100.00,WSW,248,13.0,17.0,31,0.00,,,0.00,661.000000,,2013-08-20 23:53:00,
2013-08-20 17:02:00,83.0,49.0,-100.00,WSW,248,13.0,17.0,31,0.00,,,0.00,661.000000,,2013-08-21 00:02:00,
2013-08-20 17:12:00,83.0,49.0,-100.00,WSW,248,13.0,17.0,31,0.00,,,0.00,661.000000,,2013-08-21 00:12:00,
2013-08-20 17:52:00,79.0,49.0,-100.00,WSW,246,14.0,20.0,35,-99.99,,,0.00,405.000000,,2013-08-21 00:52:00,
2013-08-20 18:02:00,79.0,49.0,-100.00,WSW,246,14.0,20.0,35,-99.99,,,0.00,405.000000,,2013-08-21 01:02:00,
2013-08-20 18:11:00,79.0,49.0,-100.00,WSW,246,14.0,20.0,35,-99.99,,,0.00,405.000000,,2013-08-21 01:11:00,
2013-08-20 18:52:00,73.0,49.0,-100.00,WSW,250,17.0,19.0,42,-99.99,,,0.00,278.000000,,2013-08-21 01:52:00,
2013-08-20 19:02:00,73.0,49.0,-100.00,WSW,250,17.0,19.0,42,-99.99,,,0.00,278.000000,,2013-08-21 02:02:00,
2013-08-20 19:12:00,73.0,49.0,-100.00,WSW,250,17.0,19.0,42,-99.99,,,0.00,278.000000,,2013-08-21 02:12:00,
2013-08-20 19:22:00,73.0,49.0,-100.00,WSW,250,17.0,19.0,42,-99.99,,,0.00,278.000000,,2013-08-21 02:22:00,
2013-08-20 19:52:00,69.0,44.0,-100.00,WSW,242,19.0,25.0,40,0.00,,,0.00,97.000000,,2013-08-21 02:52:00,
2013-08-20 20:02:00,69.0,44.0,-100.00,WSW,242,19.0,25.0,40,0.00,,,0.00,97.000000,,2013-08-21 03:02:00,
2013-08-20 20:12:00,69.0,44.0,-100.00,WSW,242,19.0,25.0,40,0.00,,,0.00,97.000000,,2013-08-21 03:12:00,
2013-08-20 20:22:00,69.0,44.0,-100.00,WSW,242,19.0,25.0,40,0.00,,,0.00,97.000000,,2013-08-21 03:22:00,
2013-08-20 20:55:00,67.0,39.0,-100.00,WSW,241,20.0,29.0,36,0.00,,,0.00,5.000000,,2013-08-21 03:55:00,
2013-08-20 21:04:00,67.0,39.0,-100.00,WSW,241,20.0,29.0,36,0.00,,,0.00,5.000000,,2013-08-21 04:04:00,
2013-08-20 21:13:00,67.0,39.0,-100.00,WSW,241,20.0,29.0,36,0.00,,,0.00,5.000000,,2013-08-21 04:13:00,
2013-08-20 21:23:00,67.0,39.0,-100.00,WSW,241,20.0,29.0,36,0.00,,,0.00,5.000000,,2013-08-21 04:23:00,
2013-08-20 21:54:00,64.0,43.0,-100.00,WSW,237,18.0,26.0,46,0.00,,,0.00,0.000000,,2013-08-21 04:54:00,
2013-08-20 22:02:00,64.0,43.0,-100.00,WSW,237,18.0,26.0,46,0.00,,,0.00,0.000000,,2013-08-21 05:02:00,
2013-08-20 22:12:00,64.0,43.0,-100.00,WSW,237,18.0,26.0,46,0.00,,,0.00,0.000000,,2013-08-21 05:12:00,
2013-08-20 22:22:00,64.0,43.0,-100.00,WSW,237,18.0,26.0,46,0.00,,,0.00,0.000000,,2013-08-21 05:22:00,
2013-08-20 22:52:00,59.0,43.0,-100.00,WSW,241,15.0,22.0,56,0.00,,,0.00,0.000000,,2013-08-21 05:52:00,
2013-08-20 23:02:00,59.0,43.0,-100.00,WSW,241,15.0,22.0,56,0.00,,,0.00,0.000000,,2013-08-21 06:02:00,
2013-08-20 23:12:00,59.0,43.0,-100.00,WSW,241,15.0,22.0,56,0.00,,,0.00,0.000000,,2013-08-21 06:12:00,
2013-08-20 23:22:00,59.0,43.0,-100.00,WSW,241,15.0,22.0,56,0.00,,,0.00,0.000000,,2013-08-21 06:22:00,
2013-08-20 23:52:00,60.0,44.0,-100.00,WSW,244,13.0,20.0,55,0.00,,,0.00,0.000000,,2013-08-21 06:52:00,